Theta_e
303 302 303 303 303 303 304 306 307 308 308 308 308 308 307 307 307 306 306 306 306 306 306 305 306 307 307 307 307 307 306 307 309 309 309 308 307 306 305 306 306 308 309 310 312 312 313 314 315 315 315 315 315 315 315 315 315 314 315 313 312 312 313 315 316 316 315 318 317 316 318 317 326 339 338 332 335 341 344 347 347 345 347 347 349 348 347 347
303 303 303 303 302 302 302 304 306 307 307 308 308 308 308 307 307 306 306 306 306 306 306 305 306 307 307 306 306 305 306 308 308 309 309 307 305 305 304 305 306 307 307 310 312 311 312 313 314 314 313 314 314 315 314 315 315 314 315 313 313 315 315 316 316 315 316 317 317 317 317 319 329 341 340 333 337 343 346 348 346 346 347 347 348 347 347 346
303 303 303 303 302 302 302 302 304 306 306 307 308 308 308 308 307 307 306 306 306 306 306 305 305 306 306 306 306 305 307 307 308 309 310 310 308 306 305 304 305 305 306 311 312 311 312 312 314 313 312 314 314 314 313 315 315 314 315 315 315 316 315 315 315 315 316 316 316 317 316 323 335 341 339 337 341 343 345 348 348 349 346 345 347 347 347 345
303 303 303 303 303 302 302 302 303 305 306 306 307 307 308 308 308 307 307 306 306 306 306 306 305 305 306 306 305 306 306 307 309 310 309 310 310 307 306 305 305 304 306 309 310 312 312 311 314 313 312 313 314 314 313 315 314 314 317 316 316 317 315 314 315 315 316 315 316 316 315 327 340 341 339 340 342 341 343 346 347 349 346 345 346 346 346 345
304 304 303 303 303 303 303 303 302 303 305 306 306 307 307 308 308 307 307 306 306 306 306 305 306 305 306 305 305 306 306 306 308 309 306 307 307 307 307 306 304 304 306 308 310 312 311 311 312 312 312 312 314 313 313 315 315 316 316 315 317 317 315 315 316 315 316 315 315 316 316 332 343 340 340 341 341 342 343 345 346 347 345 345 346 345 345 345
304 304 304 303 303 303 303 303 302 302 304 305 306 306 306 307 308 308 307 307 306 306 306 305 306 306 305 305 305 306 307 306 308 307 305 306 306 306 308 308 305 305 307 309 311 312 311 311 310 311 311 312 314 313 313 315 315 316 316 315 317 317 315 316 316 315 315 315 316 316 315 328 343 342 341 342 343 345 345 344 343 344 344 345 346 345 343 344
305 304 304 304 304 304 304 303 302 301 302 303 305 306 306 307 308 308 307 307 306 306 306 305 305 305 305 304 306 307 307 308 308 306 305 305 306 307 307 308 307 306 308 309 312 313 310 310 310 311 311 312 314 313 313 315 314 314 315 316 316 316 316 316 316 315 315 315 315 315 314 322 340 345 343 345 345 345 344 343 342 343 347 347 345 343 343 345
304 304 304 304 303 304 304 303 303 302 301 301 303 305 305 306 307 308 307 307 306 306 306 304 304 305 304 304 306 306 306 309 308 307 305 304 308 312 313 313 310 308 309 309 312 312 310 310 310 311 311 312 313 313 314 315 314 313 314 316 315 315 316 315 315 315 315 315 315 320 320 319 334 345 345 346 345 344 343 342 342 344 346 346 344 343 344 345
303 304 304 304 303 304 304 303 303 303 301 301 302 303 305 305 306 307 308 307 306 306 306 304 304 305 304 305 305 305 306 308 308 306 305 304 308 313 318 318 313 309 308 309 312 312 311 310 310 311 311 313 313 314 315 314 313 313 314 316 315 315 316 315 315 315 315 315 320 330 330 325 334 345 347 348 346 344 344 342 342 344 344 345 344 344 345 344
302 302 303 304 303 303 304 303 303 303 302 302 302 302 304 305 305 307 307 307 306 306 305 303 305 305 304 306 305 305 305 306 307 307 306 305 305 309 315 317 314 310 308 309 311 312 312 310 311 312 312 313 313 314 314 314 314 315 314 315 316 315 315 315 315 315 315 317 325 333 334 334 339 342 345 348 347 344 343 343 344 344 344 344 344 345 346 345
302 302 303 303 304 304 303 303 303 303 303 303 303 302 303 304 305 306 307 307 306 306 304 303 304 305 305 304 303 305 306 306 307 307 306 306 305 307 310 314 314 311 308 308 310 312 313 312 312 312 312 313 312 313 314 314 314 315 314 315 315 315 315 315 315 315 315 317 325 332 337 341 339 337 345 348 346 345 345 345 344 344 344 345 344 344 345 345
302 302 303 303 303 303 303 303 303 303 303 303 303 302 302 303 304 305 307 307 306 306 304 303 304 304 305 304 303 305 305 304 305 305 305 305 306 307 307 310 312 311 308 308 310 312 312 312 313 311 311 312 312 313 314 314 314 313 314 314 314 314 315 314 315 316 314 317 326 332 334 339 341 340 345 347 345 347 346 346 345 345 345 345 345 344 344 345
303 303 303 303 303 303 303 303 303 303 303 303 302 302 301 302 303 304 306 307 306 306 305 303 303 304 304 304 304 305 303 302 304 304 303 305 306 307 307 308 312 311 309 308 310 311 311 310 313 312 312 313 312 312 313 313 313 313 313 313 314 313 313 315 315 315 315 319 329 331 326 332 345 345 346 347 346 347 347 347 346 346 346 345 345 344 343 344
303 303 303 303 303 303 303 303 303 303 303 303 302 302 301 301 302 304 305 307 306 305 304 302 303 304 304 303 304 304 303 303 304 304 304 306 306 307 308 310 312 311 309 309 310 310 309 309 312 313 312 313 312 312 312 313 312 312 312 313 314 311 310 316 315 315 317 322 331 331 323 331 345 345 346 347 346 346 346 347 346 346 346 345 345 343 342 343
303 303 303 302 302 302 303 303 303 302 302 303 302 301 301 300 301 303 305 306 306 305 304 303 304 304 303 303 304 303 302 304 306 305 305 307 306 307 310 311 312 310 308 309 309 309 308 309 311 312 311 312 312 311 312 313 312 312 312 310 312 311 311 315 315 314 318 326 333 327 323 334 345 345 345 345 345 347 346 346 346 345 346 344 344 343 341 341
303 303 302 302 302 302 302 302 302 302 302 302 301 301 300 300 301 303 305 306 306 305 304 304 305 304 303 303 303 303 303 305 306 306 306 307 307 307 310 311 309 308 308 309 309 308 309 309 310 311 311 311 311 311 311 311 311 312 312 309 310 310 310 313 314 314 319 328 333 326 327 339 346 345 344 344 344 346 346 346 345 344 344 343 343 342 342 341
303 303 302 302 302 302 302 302 302 302 302 302 301 301 300 300 301 303 306 306 305 304 304 304 304 303 303 304 303 304 304 305 305 305 306 307 307 307 310 310 308 308 308 309 309 308 308 309 309 310 311 311 311 312 311 308 309 311 311 311 311 311 310 311 313 316 320 328 331 327 332 341 345 346 345 344 344 345 346 345 344 344 343 343 343 342 342 341
303 303 302 302 302 302 302 302 302 302 302 301 301 300 300 300 301 304 305 305 304 304 304 304 303 304 305 304 303 304 305 304 304 305 305 306 307 307 310 310 308 309 308 309 310 308 309 309 309 309 310 310 311 311 310 309 310 310 310 311 311 311 311 311 313 317 321 325 328 327 333 344 346 347 346 345 345 344 342 339 339 342 342 342 343 342 342 342
302 302 302 302 302 301 302 301 301 301 301 301 300 299 300 301 302 304 305 305 304 304 305 305 303 305 305 302 303 305 304 304 304 304 305 306 307 308 310 310 309 309 308 309 310 309 309 309 309 309 309 310 311 312 311 312 313 312 312 311 311 309 310 314 317 320 323 324 326 326 333 344 347 347 347 345 344 340 336 335 336 339 340 340 339 338 339 339
302 302 302 302 302 301 302 301 301 301 301 300 301 301 301 301 301 303 304 304 304 305 305 304 303 304 303 302 303 304 303 304 305 305 306 307 307 309 310 309 309 308 308 309 309 310 309 309 309 309 310 310 311 312 313 314 314 314 313 311 311 309 310 317 320 324 327 324 325 327 330 341 347 345 346 344 342 339 335 335 337 339 339 337 334 334 333 333
301 302 302 302 301 301 301 301 301 301 300 300 301 301 301 300 300 301 303 304 304 305 304 304 304 304 304 304 304 304 302 303 305 306 307 307 307 309 310 309 308 308 309 309 309 309 309 309 309 309 310 311 310 312 313 313 313 313 312 311 311 310 314 320 322 325 330 326 327 331 333 340 345 343 343 343 342 340 337 337 339 339 338 334 332 333 333 332
301 301 302 302 301 301 301 301 301 301 300 301 301 301 300 301 302 302 303 303 304 305 304 304 305 304 305 305 304 303 301 302 304 305 307 307 307 309 309 309 308 308 309 309 309 309 309 309 310 310 311 310 310 311 312 314 313 313 312 311 309 312 318 323 324 325 327 327 329 335 339 340 342 340 340 342 342 341 339 339 339 338 337 334 333 332 333 333
301 301 301 301 301 301 301 301 301 301 301 301 301 300 300 301 302 302 302 302 302 303 303 303 304 304 304 304 304 303 301 301 303 305 307 307 307 308 309 309 308 308 309 309 309 309 308 309 310 310 310 310 310 311 311 312 312 313 312 309 309 314 317 318 324 327 326 327 330 337 341 340 340 338 338 339 340 340 339 339 339 337 337 336 335 333 334 335
301 301 301 301 301 301 301 300 301 301 301 300 300 300 300 301 301 302 302 302 301 302 302 303 304 303 304 304 304 303 301 301 303 305 307 307 307 308 310 309 308 308 308 309 309 309 308 310 310 310 309 309 309 310 310 311 312 313 313 311 311 314 314 317 325 327 326 329 332 334 336 339 341 341 340 337 338 339 338 339 338 337 337 336 335 334 334 333
300 300 300 301 301 301 300 300 301 301 301 300 300 300 300 301 301 302 303 302 301 302 302 303 304 304 304 304 303 303 302 302 303 305 307 307 308 309 310 310 309 309 309 308 308 308 309 309 310 309 308 309 309 309 310 310 311 312 313 313 313 315 317 323 326 323 323 327 332 328 324 330 339 341 340 338 339 340 338 338 337 336 337 336 335 334 333 333
300 300 300 300 301 301 300 300 301 301 300 300 300 300 300 301 302 303 303 302 302 302 303 303 304 304 304 304 303 302 302 303 304 305 306 307 308 309 310 310 310 310 309 308 308 309 309 309 308 309 309 309 309 309 310 311 311 310 312 313 316 319 321 323 323 319 318 323 331 327 319 323 332 337 340 339 339 340 338 338 337 336 337 335 334 335 334 334
300 300 300 299 300 300 300 301 301 301 300 300 301 301 302 302 302 303 302 302 302 303 303 303 303 303 304 304 302 301 303 305 304 305 305 306 308 309 310 310 311 310 309 309 309 309 310 308 308 308 308 308 308 309 310 311 310 311 312 313 317 322 321 321 320 316 316 322 330 330 321 322 326 333 339 339 339 340 339 338 337 336 336 334 334 335 334 334
300 300 299 298 299 300 301 301 301 301 301 301 302 302 302 302 302 303 302 302 304 303 304 304 303 303 304 304 302 302 304 305 304 305 305 307 307 308 309 310 311 311 310 309 308 310 310 308 308 308 308 308 308 309 310 311 311 312 313 312 315 321 321 320 318 315 317 324 326 325 321 319 321 330 339 339 339 341 340 339 337 336 336 335 334 335 334 333
300 300 299 298 299 300 300 300 301 301 300 301 302 302 303 303 303 302 301 303 304 302 304 304 303 303 303 303 301 301 304 304 304 305 305 307 307 307 309 310 310 311 311 309 309 311 310 309 309 308 308 309 309 310 310 310 312 313 313 313 315 320 321 320 318 316 318 321 320 320 319 315 318 329 336 337 339 340 339 337 336 336 335 335 334 333 332 332
300 300 299 299 299 299 299 299 300 300 300 300 301 302 303 303 302 302 302 304 303 303 304 303 302 303 303 302 301 301 303 304 305 305 305 307 307 307 309 311 311 311 311 310 310 312 311 309 309 309 309 309 310 310 310 310 312 313 314 314 316 317 319 319 318 318 318 317 315 317 320 314 316 327 333 334 337 337 337 337 335 335 334 334 333 332 331 331
300 300 299 300 300 299 299 299 299 299 299 299 299 301 303 302 302 302 303 304 303 303 303 302 303 303 303 302 301 301 303 304 305 306 306 307 307 308 309 311 311 312 312 311 311 312 311 310 309 309 309 310 310 310 310 310 311 313 314 313 313 314 316 316 316 318 317 314 312 316 321 315 313 322 329 331 334 334 335 336 335 335 334 333 332 332 331 330
299 299 299 299 300 300 299 299 299 298 298 298 299 301 303 302 302 302 303 302 304 305 304 303 303 303 303 302 301 302 303 304 305 306 307 307 308 308 310 311 312 312 312 312 312 312 311 310 310 310 310 310 310 309 309 310 311 312 313 312 312 312 313 313 314 316 314 312 314 316 319 315 313 320 329 331 332 333 334 334 334 334 334 333 332 331 331 330
299 298 299 299 300 301 300 299 299 299 298 297 299 301 302 303 303 303 303 304 306 306 305 304 304 304 304 302 301 302 303 304 305 307 307 307 308 309 309 311 312 312 313 312 312 311 311 311 311 310 310 310 310 309 307 308 310 311 311 310 310 311 313 315 314 314 312 313 316 317 318 316 314 321 331 330 330 333 332 332 333 334 334 333 332 330 330 329
299 299 300 300 300 301 301 299 298 299 297 297 299 302 303 304 303 303 304 307 307 307 306 304 304 304 304 302 302 303 304 305 306 307 308 308 308 309 310 311 311 312 313 313 312 311 312 313 311 310 311 310 310 309 309 309 309 310 312 312 310 310 312 313 312 311 312 314 317 319 320 316 315 324 333 332 331 332 331 332 334 333 333 332 330 329 329 327
300 300 300 301 300 300 300 299 299 300 298 298 301 303 303 304 304 305 306 306 307 307 306 304 304 304 304 302 303 303 305 306 306 307 308 308 309 310 310 310 311 311 313 313 312 311 311 312 311 311 311 310 310 310 310 310 309 310 312 311 310 311 311 311 314 314 313 316 319 320 320 319 322 329 332 331 332 332 331 333 334 333 333 332 330 329 328 327
301 302 302 302 302 301 300 299 300 300 299 300 303 303 303 304 305 306 306 306 306 306 306 305 304 304 303 302 302 303 305 306 307 308 308 308 309 310 310 309 310 311 312 313 312 311 311 311 311 311 311 311 310 310 311 310 310 310 310 309 312 314 313 311 313 316 315 315 318 318 319 322 325 328 330 330 332 332 331 333 333 332 332 332 330 329 329 328
303 303 303 303 302 301 301 299 300 301 301 302 303 303 304 304 304 305 306 305 305 305 306 305 304 305 303 302 303 303 305 306 307 309 309 309 309 310 309 309 310 311 312 313 312 312 311 311 311 311 311 311 310 311 311 311 311 310 309 310 313 314 314 312 311 313 313 313 317 318 317 319 317 322 331 332 331 333 331 332 334 332 331 331 331 330 329 329
303 303 303 303 302 302 302 301 300 302 303 303 304 304 305 305 305 305 305 304 304 305 307 306 305 306 304 302 303 303 305 307 307 308 309 309 310 310 309 309 309 310 311 312 312 313 313 312 311 311 310 311 311 311 310 310 311 311 310 312 313 311 312 311 311 313 312 312 317 318 317 317 314 320 331 333 332 334 332 331 334 332 331 332 331 330 329 328
303 303 303 303 303 303 303 302 302 303 304 304 304 304 305 305 305 305 304 304 304 304 307 308 306 306 305 303 303 304 306 307 307 309 309 309 310 311 309 309 309 310 311 311 312 312 313 313 311 311 311 311 311 310 309 309 310 311 311 312 312 311 311 311 311 313 312 311 315 319 320 317 316 321 330 332 333 334 332 332 333 332 331 331 331 329 328 327
303 303 302 303 304 304 304 303 304 304 304 304 304 304 305 305 304 304 303 304 304 305 307 309 306 306 305 303 303 304 306 307 307 309 310 310 310 311 309 309 309 310 310 311 311 312 313 314 312 311 311 311 310 310 310 310 309 309 310 310 310 312 312 313 312 310 311 311 312 319 322 318 319 327 330 331 333 333 333 333 332 332 331 330 330 328 327 326
303 302 303 303 304 304 304 304 304 304 303 303 304 304 304 305 305 304 304 303 303 304 306 307 308 307 305 303 304 305 306 307 307 308 310 309 310 311 310 309 309 310 310 310 311 312 312 313 313 311 311 310 310 311 311 312 311 309 310 310 310 311 310 312 313 310 310 310 310 315 316 317 326 334 330 330 333 332 333 332 331 332 331 330 329 327 326 325
303 302 303 304 303 304 304 304 304 304 304 304 304 304 304 305 305 305 305 304 304 305 305 307 309 308 306 304 304 305 306 307 307 308 309 309 310 311 310 309 310 310 311 310 311 313 313 313 312 312 312 311 311 312 311 312 312 311 311 311 311 312 310 310 311 312 310 310 312 313 312 318 330 331 329 332 333 331 332 332 331 331 330 329 328 326 325 324
303 302 303 304 304 304 305 305 304 305 305 305 305 305 305 305 305 305 305 305 306 306 307 309 309 309 307 305 304 306 307 308 308 307 308 308 308 309 309 309 310 310 310 311 312 313 314 313 313 311 311 311 312 312 311 312 312 312 311 311 312 312 312 311 311 313 312 310 313 313 311 320 330 328 328 332 333 331 331 330 330 330 329 328 326 324 323 322
303 303 303 304 304 304 305 305 305 305 305 305 306 306 306 306 305 305 306 306 308 309 310 310 309 309 308 305 305 306 307 308 308 307 308 308 308 308 309 309 310 310 311 311 312 312 312 312 312 312 312 312 313 312 311 311 311 312 312 312 313 312 312 314 313 314 313 310 312 312 309 320 330 328 328 331 331 331 330 330 330 329 328 327 325 323 321 321
304 304 304 304 304 304 305 305 305 305 305 305 305 306 306 306 306 306 306 307 307 309 312 312 310 310 308 306 306 306 307 308 308 308 308 308 308 307 308 309 310 310 310 313 314 312 312 313 312 312 313 313 313 312 312 311 310 312 312 312 312 312 312 314 313 311 310 310 311 310 310 323 331 328 328 330 330 330 330 329 329 327 326 324 323 322 320 320
304 304 304 304 304 304 304 305 304 304 305 305 306 307 307 307 307 306 306 307 307 309 312 312 312 311 308 306 307 307 307 307 307 308 308 308 308 306 307 309 309 310 314 318 317 311 312 315 314 312 312 311 312 312 313 313 311 311 312 312 312 312 313 313 311 309 309 311 312 311 312 324 331 329 329 330 330 330 330 328 327 326 324 322 321 320 318 318
304 304 304 305 305 305 305 305 304 304 304 305 306 307 307 308 310 308 307 309 310 311 313 313 312 311 308 307 308 307 307 307 308 308 308 308 308 306 307 308 309 315 319 317 314 312 312 313 314 315 315 313 313 314 314 313 312 311 311 312 312 313 313 314 311 310 312 312 312 313 315 319 326 330 330 330 330 329 329 328 326 325 323 321 320 318 317 317
305 305 304 304 305 306 306 306 305 305 305 304 304 307 308 310 311 310 308 309 310 312 315 314 313 310 307 307 310 309 308 308 309 309 309 308 307 306 306 307 309 315 316 311 310 314 312 311 314 316 315 314 315 316 315 314 313 312 312 312 313 313 313 314 313 313 315 313 311 316 318 315 321 330 330 329 330 329 328 327 326 324 321 320 319 318 317 316
306 306 305 305 305 306 307 307 306 307 307 306 306 308 310 311 311 311 310 310 311 313 315 315 313 311 308 309 310 310 310 309 309 310 310 309 308 307 307 307 308 310 310 309 312 314 312 312 314 314 313 315 316 316 315 315 314 313 312 312 313 313 313 314 315 314 316 316 315 318 319 317 321 330 330 329 329 328 327 326 325 324 321 320 319 318 317 316
304 304 305 305 306 307 309 309 308 309 310 309 309 310 311 311 311 311 310 310 312 313 314 315 314 312 311 310 309 312 313 313 312 312 311 311 310 309 308 308 307 308 308 309 313 315 313 313 314 313 312 315 317 317 316 315 315 315 314 313 314 314 314 315 315 316 317 318 318 319 318 319 326 331 330 329 328 326 325 325 325 324 322 321 320 319 318 316
303 303 303 305 307 308 310 310 310 310 311 311 311 312 312 312 312 311 310 309 310 310 311 314 316 315 313 312 313 316 318 318 316 314 312 312 311 310 310 309 308 309 309 310 313 314 313 313 314 313 311 314 317 317 317 317 316 315 316 317 316 316 315 315 317 319 319 318 319 318 315 317 326 330 329 328 326 325 324 324 325 323 322 322 320 318 317 316
302 303 304 305 307 309 309 310 311 312 312 312 313 312 312 312 311 312 311 309 307 308 310 312 314 316 317 317 318 318 317 319 319 316 313 313 311 311 310 309 309 309 310 311 312 312 311 312 313 312 311 313 317 318 318 318 316 315 318 322 320 317 317 319 321 323 321 318 318 318 314 318 327 329 328 327 326 325 324 324 323 322 322 321 320 317 316 315
Wind_Speed
14 13 13 14 14 13 13 14 13 13 12 11 10 9 10 10 10 11 11 12 12 13 14 13 15 15 14 16 16 18 20 20 17 15 15 18 13 13 11 4 8 13 9 6 7 10 11 11 11 11 10 8 6 6 8 8 6 6 6 8 8 8 7 4 6 3 0 3 3 3 4 7 4 4 4 6 8 10 11 8 8 8 8 12 18 24 24 22
14 14 14 14 14 14 13 13 13 14 13 13 12 10 10 10 10 10 11 11 12 12 13 13 14 15 15 16 18 19 20 19 18 18 20 19 13 13 16 9 9 13 10 8 10 13 12 12 12 12 10 7 6 7 9 8 8 8 6 7 8 6 3 2 2 1 1 1 4 4 4 7 3 5 6 9 11 12 12 10 10 12 13 15 19 23 23 22
14 14 14 14 14 14 14 13 13 13 14 13 13 12 11 10 10 10 10 10 11 12 12 13 14 15 16 16 18 20 18 18 15 13 11 7 8 13 17 16 13 12 12 10 10 11 9 10 14 13 10 7 6 8 9 8 8 9 7 7 7 4 2 3 2 1 1 4 6 5 6 6 2 6 6 9 12 13 12 11 12 13 15 16 18 21 23 21
14 13 14 14 14 14 14 14 13 13 13 13 13 13 13 11 10 10 10 10 10 11 10 12 13 14 15 16 18 18 15 14 7 2 2 4 4 6 12 18 19 16 12 10 9 10 7 8 13 13 10 8 7 8 9 9 8 7 8 8 4 3 4 4 4 3 2 4 5 6 8 4 4 6 6 9 12 12 10 10 10 13 17 17 18 20 22 21
14 14 14 14 14 14 14 14 13 13 13 13 13 13 13 12 12 10 9 10 10 10 10 11 12 13 15 16 17 15 11 7 3 9 7 4 2 1 5 13 21 20 13 11 10 10 9 9 12 11 9 8 9 9 10 12 9 6 9 10 2 3 6 4 4 2 1 3 5 6 6 1 5 5 7 10 9 5 5 8 8 13 16 17 18 19 20 19
16 15 14 14 14 14 14 14 14 13 13 13 13 13 13 12 13 11 8 9 10 10 10 10 11 12 14 16 15 11 8 3 4 7 8 6 4 3 3 9 19 22 15 13 13 12 12 12 12 11 9 9 11 11 11 13 10 7 8 10 5 5 5 2 3 2 1 5 5 5 5 2 5 6 7 8 3 3 3 6 9 13 16 18 19 18 18 17
17 16 15 15 14 14 13 14 14 14 14 13 13 13 13 12 12 11 9 8 10 9 9 10 10 11 14 15 12 8 8 7 2 1 4 9 8 7 3 10 18 22 19 17 16 14 13 14 14 11 10 9 11 13 11 11 11 10 6 8 9 8 6 4 4 3 3 6 6 5 5 5 7 6 7 6 4 3 3 7 11 15 17 18 18 16 16 15
16 16 16 15 15 14 13 13 14 14 14 14 14 13 13 13 11 12 10 7 9 9 8 9 9 11 13 12 8 5 9 11 4 4 4 10 11 10 2 11 19 23 22 20 18 15 14 15 15 11 11 9 10 12 11 11 11 13 8 6 8 7 7 7 5 5 5 5 4 5 5 6 6 6 6 6 5 4 6 10 13 16 18 17 16 16 15 14
16 15 16 16 15 14 14 13 13 14 14 14 14 14 14 13 12 12 11 8 8 9 8 8 8 10 11 8 7 5 6 8 5 7 7 8 11 8 3 8 18 23 22 21 18 17 14 13 16 12 9 8 10 11 11 11 9 12 12 6 7 7 7 7 6 7 5 4 4 4 3 3 6 8 5 5 6 7 8 12 15 17 18 16 15 15 14 13
17 16 15 16 15 14 14 14 13 13 13 13 13 14 14 13 12 12 11 9 7 8 8 8 7 8 8 6 6 6 1 0 3 5 5 6 10 5 1 5 15 21 21 21 19 18 13 12 15 9 6 6 9 10 12 11 4 7 13 9 8 8 6 6 6 6 4 4 6 4 4 6 8 7 4 6 7 8 11 13 15 17 17 16 15 14 13 14
17 17 16 15 15 14 14 14 14 13 13 13 13 13 14 13 12 11 11 10 7 8 8 8 7 8 8 6 6 6 1 3 3 7 8 10 10 6 4 4 13 20 20 19 19 20 15 12 13 7 4 6 9 10 11 10 3 5 10 9 10 9 7 8 8 6 5 5 6 5 6 8 7 6 5 10 9 9 13 14 16 16 16 16 15 13 13 13
17 17 16 15 14 14 15 15 14 13 12 12 13 13 14 14 13 12 12 10 8 8 7 7 7 7 9 8 11 14 7 7 12 15 15 13 11 8 7 7 12 19 19 18 19 20 16 10 13 11 4 6 9 8 8 10 6 5 7 7 10 10 10 12 10 8 7 6 7 8 7 8 7 4 7 12 10 11 13 14 16 15 15 15 14 12 11 12
17 16 15 14 14 14 14 14 13 12 12 12 13 13 13 14 13 12 12 11 9 8 6 6 6 8 9 8 13 20 18 18 20 21 18 14 13 10 8 8 12 18 17 17 19 19 13 8 13 13 4 6 9 4 4 10 8 6 7 7 7 8 10 13 12 9 8 7 10 10 7 8 8 6 7 11 12 13 14 14 14 13 13 13 12 11 10 10
17 15 14 13 14 14 13 14 13 12 12 12 13 13 13 13 13 12 11 11 9 7 7 6 6 8 9 10 16 20 20 20 20 21 18 11 10 8 6 7 12 17 14 13 16 16 11 9 13 11 5 7 5 6 6 9 7 8 8 7 6 6 8 12 11 10 9 7 10 10 6 6 8 8 8 10 13 14 14 14 14 13 12 12 12 12 10 9
17 15 13 13 14 13 13 13 12 12 12 12 12 13 13 12 13 12 10 10 10 8 7 7 7 8 9 12 16 14 11 12 16 18 15 10 9 6 5 9 11 16 14 10 12 12 10 11 12 10 7 5 4 8 8 7 7 8 8 7 7 7 7 12 9 11 9 7 10 10 5 6 9 10 8 9 13 13 14 14 13 13 13 12 10 10 9 9
18 16 14 13 13 13 12 13 12 12 12 11 11 12 13 12 12 11 8 10 10 7 6 7 7 7 8 7 5 6 7 8 10 9 8 9 11 7 6 11 11 15 16 11 11 11 9 11 10 8 8 7 7 9 7 6 8 8 8 7 9 9 8 10 8 8 7 8 11 11 4 6 9 10 7 9 13 13 13 14 13 12 12 10 8 7 8 8
18 16 14 13 13 12 12 13 12 11 12 11 11 11 12 11 10 10 8 10 9 6 7 7 4 6 9 7 5 5 4 4 5 4 4 7 11 9 9 11 11 16 17 12 12 12 10 9 7 6 8 9 10 9 8 9 8 8 9 6 8 11 8 9 10 8 9 10 11 11 5 7 10 10 8 9 11 12 11 11 10 11 12 10 9 9 8 8
18 16 14 13 12 12 12 13 12 11 11 11 10 11 11 10 9 8 7 9 7 5 7 6 4 5 7 7 8 4 3 6 8 9 9 7 10 12 12 11 12 17 16 12 12 12 10 8 7 8 9 10 11 11 10 9 9 10 10 7 7 10 9 9 10 9 12 12 11 11 6 9 12 10 8 9 10 10 9 7 6 8 11 10 8 8 8 8
17 15 14 13 12 12 12 12 11 10 10 10 10 11 10 8 7 7 7 9 7 5 5 5 9 6 3 2 3 6 9 12 11 10 10 9 12 14 14 12 13 17 15 11 12 13 10 8 9 10 11 13 13 14 11 5 7 11 13 10 8 9 8 6 9 9 12 13 12 11 8 10 11 9 8 9 10 11 12 8 4 6 10 10 8 5 3 4
16 14 13 12 12 12 12 12 10 10 9 10 9 8 7 5 6 6 8 9 8 8 9 7 11 11 11 6 4 11 12 8 7 7 10 12 15 15 13 13 14 14 12 12 13 13 11 9 12 13 14 17 17 17 12 3 3 9 12 11 9 10 8 7 9 8 9 11 10 10 11 11 9 8 7 9 12 12 12 10 7 8 10 9 9 9 7 7
16 14 12 12 11 11 12 11 10 10 10 10 9 7 6 7 6 3 5 10 14 17 18 16 14 17 17 14 11 12 9 5 6 7 9 13 17 15 12 14 15 12 13 15 13 10 11 11 14 16 16 17 18 17 12 6 4 6 9 9 8 8 8 8 8 8 6 7 7 9 12 10 7 8 6 8 11 10 11 11 9 11 11 8 10 10 8 6
16 14 13 12 11 11 11 11 10 10 10 11 10 9 9 9 5 4 3 7 12 18 20 19 19 19 19 20 16 8 6 7 8 8 11 14 17 14 12 15 15 13 15 16 12 10 11 12 16 18 15 15 16 15 12 8 7 5 7 8 8 7 9 8 7 10 6 5 8 11 11 9 7 8 7 6 9 8 9 10 11 12 11 9 9 9 10 10
16 15 14 12 11 10 9 10 10 9 11 12 13 13 12 11 7 4 5 6 8 13 15 16 17 17 18 19 14 9 9 10 8 9 14 15 15 14 13 15 15 15 17 17 14 12 11 12 16 16 14 14 15 14 13 10 8 7 7 8 8 9 10 8 8 10 7 5 10 12 9 6 6 7 7 5 7 9 7 8 10 11 10 10 11 10 11 13
16 15 14 12 10 9 8 9 9 10 14 15 16 15 12 11 8 7 6 6 8 10 13 15 14 14 16 13 9 12 11 10 9 8 14 17 14 13 13 15 16 15 16 19 18 15 12 11 14 14 14 15 15 14 14 10 8 8 9 8 8 12 11 8 11 11 8 7 11 13 7 4 4 5 6 5 7 10 9 9 9 10 10 11 11 11 10 11
16 15 14 11 9 8 8 8 9 13 14 14 15 15 13 10 8 6 5 5 8 8 11 14 11 13 16 9 9 12 9 10 12 9 11 16 15 13 11 12 12 14 18 21 18 14 11 9 13 16 16 16 15 14 15 12 8 8 9 6 5 12 11 12 16 13 9 8 11 12 7 5 6 7 7 5 7 10 10 11 11 11 12 12 11 11 10 10
15 15 13 11 9 6 6 5 6 9 11 12 13 11 11 11 8 6 4 4 7 5 9 11 9 10 14 12 11 10 7 9 13 13 11 12 13 12 11 9 8 13 19 18 12 9 8 11 13 16 17 17 15 13 15 15 9 7 10 5 4 11 13 15 17 13 9 8 11 12 9 5 7 9 9 8 8 11 11 11 12 11 11 11 11 10 10 10
15 13 13 13 10 6 5 3 2 4 6 8 8 7 9 12 9 4 4 4 6 6 11 9 7 9 12 13 15 11 5 6 10 13 14 12 11 11 11 11 9 11 14 11 9 7 9 14 15 16 17 16 14 12 15 17 10 5 12 11 7 10 13 15 15 11 8 8 10 11 9 6 7 9 11 10 9 11 12 12 12 11 10 10 11 10 10 10
13 13 15 14 9 8 7 4 4 5 4 2 4 8 9 11 10 4 4 5 2 6 9 7 5 7 10 13 20 13 0 8 12 12 15 14 12 9 11 14 12 13 15 12 9 7 10 14 15 17 16 12 12 12 14 17 10 6 12 13 9 9 11 12 11 8 7 8 9 11 10 8 7 9 11 12 11 12 13 14 13 13 12 11 10 10 10 9
12 12 14 14 6 6 7 5 5 3 1 2 4 8 10 11 9 4 4 6 4 4 5 8 7 8 11 13 19 16 4 4 8 11 15 15 11 8 8 14 14 14 16 14 9 7 9 13 14 15 13 10 12 12 14 17 10 7 12 11 8 7 8 9 8 6 8 8 9 12 13 10 7 9 11 11 12 13 13 13 13 13 13 11 11 11 10 9
10 11 12 10 5 1 3 5 5 2 0 7 6 7 11 10 6 6 6 4 4 4 4 7 9 11 14 14 15 17 12 5 5 12 15 13 12 8 6 11 13 12 13 14 9 6 9 12 11 12 11 10 12 11 14 18 11 9 11 10 8 7 6 5 5 5 7 9 10 14 15 12 8 8 11 11 12 14 13 12 14 14 14 13 12 12 11 10
10 9 9 6 3 1 1 2 3 1 2 8 7 6 10 7 3 6 6 2 3 4 5 7 11 13 17 17 14 16 14 7 9 15 14 12 14 11 8 10 11 10 10 11 9 8 12 12 10 9 9 9 12 11 13 15 11 10 11 10 9 7 6 5 5 5 7 8 10 14 15 13 10 7 11 12 12 14 15 15 17 18 16 14 13 12 12 11
11 9 8 7 5 3 1 1 3 2 3 7 5 4 7 6 5 5 4 3 3 4 6 10 12 13 17 17 15 16 14 8 11 17 16 14 13 13 13 12 11 11 11 12 11 10 11 11 10 9 8 11 13 11 10 11 11 11 11 10 9 8 7 8 7 7 8 5 5 12 14 12 8 3 10 15 13 13 15 16 17 19 17 15 14 13 12 12
12 9 8 7 7 6 5 4 3 2 5 4 2 3 4 5 7 7 4 3 1 2 3 10 11 13 17 16 14 16 13 9 13 17 17 16 14 14 16 15 14 12 10 12 12 10 10 10 12 12 9 12 14 11 10 10 12 13 11 11 10 8 8 9 8 8 8 4 5 9 10 9 7 3 5 12 13 12 14 14 16 18 17 15 15 13 12 13
12 9 8 6 6 7 7 5 3 4 6 3 2 4 6 6 5 5 2 2 2 5 3 9 13 13 15 14 14 16 11 9 15 17 17 16 13 13 15 16 19 13 8 12 10 10 11 8 12 13 9 13 16 12 11 11 12 13 11 10 10 8 7 8 7 8 9 6 7 9 8 6 7 4 2 3 6 8 12 13 13 13 14 14 14 13 13 13
11 7 5 4 4 5 6 7 5 6 7 3 3 6 7 6 2 2 1 3 3 5 1 10 13 13 13 11 15 17 9 7 17 17 15 15 13 14 14 15 19 15 10 11 8 10 12 7 12 14 8 14 17 13 13 12 10 11 10 10 10 8 6 4 1 2 5 7 7 8 5 2 2 3 2 1 4 8 11 14 16 13 14 14 13 13 13 13
6 2 2 2 3 4 6 9 9 9 7 3 5 7 6 4 2 2 2 3 4 7 3 9 13 12 11 9 14 17 7 6 17 14 12 15 14 15 14 12 17 16 12 10 7 9 10 7 15 15 8 14 17 12 13 12 8 8 10 10 7 5 4 4 3 4 3 6 7 7 6 3 3 4 5 5 7 11 12 15 18 17 17 16 14 14 14 13
4 3 3 2 4 5 6 10 11 10 6 3 5 5 3 2 3 3 4 4 5 9 6 9 11 11 12 9 12 17 10 8 16 12 10 14 13 15 17 14 17 17 13 10 6 6 7 7 14 15 11 14 16 12 13 14 8 7 10 10 6 1 2 4 5 4 5 7 5 7 9 8 7 6 7 9 11 14 15 16 18 17 19 18 15 15 15 14
5 3 3 2 4 5 6 10 11 8 4 4 6 4 2 2 2 2 3 4 6 9 8 7 10 10 12 11 12 17 14 10 14 12 10 12 11 15 17 13 16 19 15 11 6 5 6 6 10 14 13 13 13 12 13 13 9 6 8 11 8 5 6 6 6 6 9 8 5 8 10 9 9 7 9 12 15 16 17 17 18 19 19 17 16 16 17 16
5 4 2 3 4 5 7 9 8 5 3 4 5 4 2 1 1 1 1 2 5 8 8 6 9 9 9 11 14 16 14 12 14 12 10 10 10 15 16 11 15 18 15 12 8 7 7 4 8 12 13 13 12 10 11 11 8 7 8 10 9 7 6 7 7 5 6 8 6 7 8 8 8 8 11 15 16 18 18 18 18 19 18 16 15 17 17 16
4 3 1 4 5 6 7 7 5 4 4 4 4 3 2 1 3 4 5 4 4 6 6 4 6 9 8 12 15 14 11 13 15 11 9 10 10 13 16 13 14 17 16 14 9 8 7 4 6 10 11 11 10 9 11 12 12 9 8 10 10 6 2 5 7 6 6 7 6 6 6 6 5 5 11 16 16 18 19 19 18 17 18 16 15 17 17 15
2 2 1 4 4 6 6 5 4 4 5 4 4 3 2 2 3 5 7 8 6 7 8 8 6 6 7 11 14 12 9 12 14 10 8 11 9 9 14 15 15 16 15 13 10 8 7 5 7 9 8 9 10 12 14 13 13 13 9 9 11 8 5 6 8 8 7 6 5 5 6 4 3 1 5 12 14 15 18 18 16 16 17 16 16 17 17 16
2 2 2 3 5 7 5 4 3 3 4 4 3 4 3 3 4 5 6 9 9 9 9 9 8 6 6 10 12 12 9 9 12 9 7 12 10 7 13 17 17 16 13 10 9 7 3 4 8 8 9 9 8 10 14 12 13 14 11 10 10 9 9 9 8 8 8 7 4 4 4 2 4 3 2 6 11 13 14 15 15 14 15 15 16 16 16 17
2 2 2 4 5 6 5 4 3 3 4 4 5 5 5 4 4 4 5 7 8 8 8 7 7 6 6 9 11 13 11 9 11 10 8 12 9 7 16 20 18 18 13 9 10 7 1 4 7 7 8 8 5 6 8 9 10 13 11 11 11 10 11 10 7 5 7 9 7 4 5 3 3 1 2 5 10 13 12 14 15 13 12 14 17 17 16 16
2 2 2 4 6 5 4 3 2 3 4 5 7 7 6 5 6 7 7 8 7 7 7 7 8 6 5 8 11 13 11 7 9 9 9 11 7 7 19 24 20 17 13 9 9 8 4 6 7 7 8 9 7 7 9 10 10 9 9 12 12 12 13 9 4 3 5 9 10 8 6 3 3 1 5 8 11 13 13 12 13 13 13 14 16 16 16 16
3 3 2 5 7 5 3 2 3 5 6 7 8 7 5 5 7 9 9 9 8 7 5 4 4 4 7 11 11 12 10 7 7 8 8 11 7 5 17 25 21 17 14 11 9 8 5 6 7 8 9 9 9 9 8 10 10 8 10 14 15 15 15 10 6 6 6 8 9 9 6 4 4 3 8 12 13 14 14 13 12 14 14 15 15 15 15 15
2 2 1 2 5 5 5 4 4 5 5 6 6 4 4 4 4 7 9 8 8 8 5 2 3 5 10 14 12 11 11 9 9 8 8 10 7 5 15 23 22 19 14 12 11 8 4 5 8 8 6 7 9 7 7 9 11 11 12 14 15 15 15 11 8 8 8 6 8 9 7 5 7 8 11 14 14 15 16 16 15 15 15 15 15 14 14 14
1 2 2 2 2 4 5 4 4 4 3 2 2 2 3 4 2 4 7 6 4 6 5 3 5 8 13 15 12 11 12 11 11 11 11 10 7 8 14 18 20 17 13 11 12 8 4 6 9 8 2 1 1 4 8 11 13 14 14 15 15 16 16 14 11 9 8 7 7 8 9 7 8 12 14 15 16 16 17 18 17 16 16 16 16 16 15 14
2 2 0 1 2 3 4 3 4 5 4 4 3 3 4 4 5 3 4 4 2 4 4 3 6 10 15 15 11 10 12 11 11 12 13 11 10 11 14 15 17 15 13 13 13 8 6 6 8 8 2 4 5 6 5 9 11 13 15 16 16 17 18 17 15 12 9 8 6 7 10 11 9 14 17 18 18 17 17 17 16 16 16 17 17 17 15 14
2 3 0 1 2 5 8 8 7 6 4 5 4 3 5 7 8 6 1 1 1 1 1 4 8 9 12 14 10 10 11 10 10 11 10 11 12 11 12 12 13 12 14 15 11 7 6 5 7 9 6 3 3 4 3 5 7 10 14 16 16 18 19 17 16 16 14 10 7 5 9 10 6 9 15 15 13 14 14 14 16 17 18 19 18 17 16 17
2 3 3 3 5 7 8 7 7 6 2 1 0 3 5 7 10 8 5 3 4 3 2 4 9 8 8 12 12 9 7 6 9 10 10 11 12 10 9 10 10 13 15 13 8 6 6 4 7 8 7 5 4 2 1 3 4 8 11 12 14 15 17 17 16 15 13 11 8 7 9 8 1 4 11 13 12 13 15 17 18 18 19 21 20 19 20 19
4 5 5 5 6 6 6 5 5 5 3 2 3 6 7 8 10 8 4 3 3 3 4 4 4 7 10 10 9 6 5 3 5 8 10 9 9 9 8 8 11 14 14 11 8 7 6 3 5 7 7 6 6 4 4 3 3 7 9 10 11 12 13 13 12 11 12 12 11 10 10 7 5 8 12 14 14 15 17 19 19 18 20 22 22 21 21 19
5 6 5 5 4 4 6 6 5 4 4 4 5 6 7 7 8 6 2 1 2 1 3 8 5 4 9 8 6 5 4 2 2 4 5 4 5 6 5 9 15 14 11 11 8 8 9 6 5 7 7 6 7 5 4 4 6 8 6 5 9 11 11 9 8 9 13 13 10 10 10 7 9 13 14 15 16 17 18 19 19 19 22 22 21 21 20 18
Wind_Direction
326 320 316 313 311 312 315 318 314 307 295 286 288 293 298 305 310 315 317 321 326 326 328 328 326 329 328 328 322 316 316 311 304 289 262 253 246 234 240 239 195 179 159 160 166 176 174 187 185 179 194 185 204 197 176 193 191 196 212 223 227 228 226 206 203 197 355 123 94 358 6 329 300 153 163 176 184 164 150 141 120 104 88 98 114 128 134 136
326 325 321 314 310 307 307 311 313 311 303 294 284 279 288 294 302 308 311 318 321 324 328 326 325 328 331 331 321 318 317 306 294 278 262 259 260 244 237 226 189 182 182 188 188 188 184 187 178 180 196 184 186 178 171 183 191 205 214 220 230 232 202 155 208 187 269 306 355 338 359 335 290 153 168 183 173 165 158 149 141 119 108 114 124 134 136 138
319 321 321 319 314 308 303 302 306 309 307 302 292 282 279 283 291 298 305 311 317 321 323 325 325 324 328 327 318 319 316 303 288 266 259 254 242 236 229 218 203 189 190 204 201 198 202 193 180 184 198 195 188 181 184 182 189 213 221 224 231 223 165 151 194 212 278 317 325 325 338 321 224 159 184 188 171 174 172 158 155 139 132 136 136 140 139 142
312 313 315 317 315 312 308 302 300 304 305 303 300 291 281 278 280 286 299 305 311 314 320 326 322 322 324 321 318 321 316 293 267 139 114 154 182 219 220 215 209 203 206 221 218 210 218 198 187 192 202 202 190 190 195 179 184 207 214 232 236 188 207 185 187 224 302 319 312 318 320 287 171 164 187 183 175 183 177 161 163 148 143 146 145 147 144 144
307 306 309 310 310 311 311 308 302 300 304 303 301 297 288 282 277 278 289 300 305 307 319 322 319 327 320 317 322 320 306 275 144 80 77 117 76 68 216 213 207 208 212 216 212 207 208 196 190 197 207 203 184 193 200 187 195 211 214 235 261 182 215 172 168 222 306 294 291 300 316 340 159 180 186 183 181 179 157 149 152 148 147 150 148 149 147 145
302 298 301 304 304 305 308 311 305 300 300 302 302 299 295 288 280 275 278 294 299 303 314 316 324 329 316 319 322 304 274 255 84 70 59 51 22 353 263 214 202 201 200 203 200 197 198 191 189 194 204 207 192 196 200 189 201 222 214 222 230 223 222 170 176 211 270 271 284 298 324 315 197 182 171 176 161 35 80 129 144 149 148 149 149 150 148 145
302 295 292 296 299 299 303 307 307 302 298 299 300 300 299 293 283 274 272 282 290 298 305 312 327 318 315 323 310 275 251 268 333 125 28 15 1 356 296 203 192 189 191 198 195 194 193 188 192 193 199 206 198 198 196 182 197 227 220 202 216 226 228 235 232 227 252 270 292 299 295 256 208 169 156 155 106 59 100 130 140 143 143 148 151 148 145 143
307 301 294 291 292 293 297 301 305 303 299 297 297 298 298 294 287 275 268 269 282 291 301 313 326 313 317 327 305 266 246 255 258 221 306 356 4 14 55 178 182 182 189 197 193 193 191 190 193 192 201 203 196 194 187 182 198 223 225 190 202 215 218 230 239 239 255 269 278 263 255 242 198 153 147 145 120 112 128 139 139 138 142 148 149 145 144 144
308 305 300 294 288 287 291 295 300 301 301 299 296 298 297 295 290 279 266 257 273 281 297 309 309 311 318 321 297 275 251 244 246 255 283 350 6 15 86 165 183 183 190 197 194 196 193 194 194 194 212 199 191 191 183 195 204 212 219 209 201 210 210 219 230 235 246 246 240 228 210 192 157 139 132 127 123 126 136 142 139 140 144 148 147 142 143 143
309 305 301 298 290 284 287 290 294 298 301 301 297 295 295 295 290 285 268 249 262 272 287 301 299 311 311 305 273 251 285 288 255 273 277 333 353 341 235 185 190 191 194 195 196 200 197 199 193 196 238 203 191 193 187 205 205 192 213 219 218 224 215 220 230 227 230 215 223 227 153 140 154 172 171 128 130 139 141 141 142 145 146 146 143 137 141 142
312 306 300 298 293 286 284 286 291 293 297 300 298 292 291 293 290 288 272 248 250 264 279 291 291 302 289 282 261 242 52 50 330 326 307 313 328 311 266 216 198 200 199 194 197 200 200 204 191 187 230 189 184 193 193 207 198 169 206 218 223 232 227 225 228 215 216 205 209 205 145 143 171 202 165 134 145 150 142 143 147 147 144 144 140 136 143 143
314 309 302 298 294 286 281 281 286 288 292 296 296 292 288 290 289 285 275 253 241 254 275 281 279 294 284 269 246 240 260 303 307 307 299 301 305 293 270 240 207 205 202 196 196 197 202 204 193 193 191 169 178 188 192 198 203 180 198 219 211 218 226 219 215 206 211 197 183 183 164 160 170 162 136 139 149 148 143 146 146 145 143 143 139 137 142 141
317 311 302 298 296 288 280 277 281 284 288 292 294 294 289 290 289 286 279 255 240 246 260 271 276 283 279 269 250 251 268 289 297 293 284 284 288 284 259 235 210 207 208 204 197 192 199 202 201 201 195 197 179 133 154 179 201 199 202 232 204 203 217 205 200 196 204 187 174 193 193 163 147 135 147 150 146 147 148 149 147 144 142 139 137 136 134 136
319 312 305 302 300 292 281 273 276 281 285 289 291 293 290 289 287 286 280 253 233 232 250 263 275 278 269 267 268 268 274 281 283 277 273 274 273 266 229 214 202 200 210 215 197 186 195 204 208 207 210 232 179 126 163 172 194 202 199 226 219 214 193 178 185 188 190 172 178 214 222 166 149 149 167 158 147 151 152 151 152 147 142 140 137 136 134 137
320 314 308 303 299 294 284 273 272 276 282 286 287 290 290 290 287 284 277 251 229 223 251 265 265 276 274 271 274 272 266 264 266 263 262 259 250 245 190 183 184 188 199 206 183 174 188 195 204 207 191 217 186 173 189 178 190 204 199 203 212 219 161 148 174 193 190 165 186 221 212 162 160 154 171 171 155 154 152 151 151 145 140 138 134 136 138 139
322 317 309 302 298 293 285 274 271 274 280 283 283 288 289 288 284 280 269 242 227 220 245 264 261 268 278 290 288 255 238 239 255 264 255 238 236 234 170 169 168 175 186 187 172 168 185 192 198 210 189 185 196 192 192 186 191 200 209 202 193 203 170 145 163 191 196 163 183 221 209 148 156 147 161 179 164 156 153 151 147 139 129 125 127 135 140 141
322 317 310 303 297 291 283 274 268 268 276 279 280 284 286 287 281 277 262 226 218 215 236 258 272 262 259 278 293 253 237 240 262 295 271 233 225 213 170 167 162 164 170 172 176 177 189 194 188 201 197 193 199 197 196 197 192 188 205 212 187 196 189 154 152 168 188 176 179 212 212 135 140 143 154 177 171 159 150 142 134 129 128 130 134 137 141 147
321 316 310 303 296 289 281 274 267 264 269 273 277 279 280 283 274 264 240 209 200 203 230 240 235 244 237 247 275 291 328 309 299 294 275 237 209 196 174 166 158 154 158 164 179 185 190 190 186 192 196 199 198 199 203 199 193 184 190 203 180 193 202 167 150 156 182 191 185 196 177 124 132 135 144 169 166 141 119 99 92 106 118 122 124 134 146 151
322 315 308 301 293 285 278 273 267 263 265 267 272 275 274 277 264 243 212 196 186 188 222 202 193 230 306 247 272 332 322 299 290 275 244 203 187 184 174 168 162 159 160 165 178 187 187 183 193 199 197 197 197 199 202 197 199 187 183 197 182 184 195 150 133 150 182 191 185 185 155 129 142 133 131 153 139 110 100 100 102 110 111 103 89 84 73 72
325 316 308 301 290 280 273 267 263 258 260 264 264 262 252 234 228 226 201 199 214 227 252 242 209 247 295 297 323 344 328 288 262 239 209 186 176 178 176 169 168 173 175 171 172 182 188 190 198 202 198 194 194 200 198 170 196 186 183 197 196 186 167 125 129 152 193 194 184 176 143 129 135 122 124 143 128 108 117 139 153 132 119 106 94 83 59 43
328 319 311 304 295 282 272 264 258 252 252 255 251 245 236 226 228 240 201 210 224 232 247 256 248 255 272 280 299 333 338 292 264 240 207 186 176 176 175 172 174 181 185 175 162 171 192 204 204 201 200 193 193 200 194 167 172 190 190 191 196 188 146 124 139 153 196 203 178 158 132 118 104 104 116 147 143 125 136 161 157 134 126 119 111 108 110 104
331 326 316 309 301 287 275 263 254 247 247 247 240 234 237 244 268 339 292 238 225 224 237 248 252 257 263 268 275 293 301 278 261 222 194 185 186 183 173 178 182 178 180 175 162 173 198 212 205 199 201 193 187 192 189 180 184 196 201 195 195 169 129 121 139 154 183 202 166 142 121 106 89 92 92 133 156 138 143 169 161 143 138 135 128 127 131 128
332 330 322 312 302 289 276 262 250 242 240 237 233 232 237 245 263 292 271 270 253 229 230 237 242 249 254 258 250 228 245 255 245 207 185 186 193 187 178 182 185 180 178 179 179 182 195 209 201 192 190 182 176 182 188 190 199 203 200 202 189 157 152 155 148 154 169 178 155 134 113 110 98 95 87 98 140 134 138 157 154 153 154 146 143 144 140 130
332 332 325 314 300 286 269 259 245 235 236 236 239 237 236 240 244 253 247 258 267 244 233 232 233 240 248 254 218 202 226 237 238 217 182 186 192 184 186 187 184 182 181 185 189 192 199 200 185 176 176 178 177 182 191 193 197 199 204 214 182 166 182 169 145 151 152 151 149 137 125 139 145 134 114 106 138 143 146 144 144 158 160 149 144 145 143 138
332 331 327 318 304 285 265 257 239 236 238 238 242 237 232 232 225 236 244 250 258 243 228 223 227 239 237 228 187 193 225 232 232 226 186 193 196 181 186 191 188 186 183 186 192 199 200 175 166 175 182 188 187 186 193 194 189 189 204 231 171 165 171 146 146 156 153 159 166 167 175 169 177 182 155 143 153 154 155 153 152 156 155 152 150 146 145 147
331 332 334 328 314 284 254 255 238 240 243 237 240 235 224 215 205 221 229 261 262 214 183 189 193 208 204 194 180 190 234 232 221 221 212 219 213 193 185 185 194 193 183 182 194 205 182 161 176 187 186 189 192 192 193 194 197 187 182 184 136 156 159 155 163 173 179 179 178 196 213 174 176 196 180 168 164 162 165 162 159 160 158 158 158 151 150 153
333 335 332 325 311 266 233 270 247 230 242 236 231 215 206 201 197 214 218 251 260 181 161 169 171 170 174 173 171 183 227 176 176 199 209 222 219 207 196 180 186 190 175 174 195 195 160 165 183 187 185 190 195 195 189 194 207 168 158 164 153 158 165 171 181 194 198 174 171 204 224 195 186 191 177 170 170 172 174 166 162 170 168 159 159 155 155 158
335 336 333 333 309 243 234 285 266 233 241 227 194 189 188 187 180 174 208 225 208 145 157 163 154 161 171 169 172 187 187 131 161 179 189 205 208 209 203 184 180 174 169 181 186 159 158 173 180 182 188 193 196 192 179 191 206 129 145 169 169 167 172 182 195 203 190 172 180 200 211 214 197 170 168 175 184 187 182 174 172 176 173 162 161 157 155 156
335 338 344 354 346 229 229 265 265 272 276 168 182 186 180 175 171 171 219 213 163 129 147 153 151 162 171 171 181 199 217 170 186 161 166 196 209 230 219 185 179 168 172 195 190 144 168 183 180 184 193 193 195 188 173 190 199 124 147 172 168 170 174 186 206 197 183 198 205 192 198 219 201 164 175 186 196 198 188 182 178 176 175 169 165 158 153 150
329 336 343 356 9 177 225 262 251 316 288 183 171 165 173 171 172 190 199 200 180 144 109 144 167 169 170 171 181 198 208 208 176 149 160 185 192 221 225 174 178 168 171 201 205 151 157 175 182 191 204 196 185 176 173 190 187 138 157 172 164 173 172 184 209 189 190 215 212 191 197 219 213 179 185 195 201 196 186 183 179 175 177 175 170 165 161 152
314 322 328 333 346 134 343 307 231 250 177 182 171 160 173 175 208 204 176 177 201 151 130 161 170 167 173 175 174 188 200 195 164 160 165 174 177 188 180 163 173 169 171 197 196 153 154 171 182 190 205 190 170 166 174 186 181 163 177 180 171 176 172 183 189 185 210 224 206 188 194 218 228 199 188 197 199 190 185 185 182 179 177 176 174 169 168 160
309 307 302 287 280 265 267 274 222 211 145 169 191 191 176 176 220 221 164 167 214 174 171 174 169 170 177 180 174 177 188 191 176 172 169 172 178 182 181 176 173 171 178 185 175 161 167 176 172 173 194 191 175 167 170 181 186 189 190 183 183 180 179 195 190 192 215 212 178 181 188 214 231 190 183 193 193 190 189 186 182 180 177 175 173 167 167 164
319 313 298 275 259 250 240 247 255 186 127 142 210 212 191 189 203 212 192 157 185 308 198 171 168 175 178 180 174 172 181 185 180 178 174 175 177 181 189 187 182 184 181 174 170 163 166 172 174 176 186 196 194 182 174 181 188 195 193 187 193 186 183 199 192 194 205 155 134 180 188 208 210 149 166 189 187 188 188 181 177 178 177 174 170 164 162 161
326 315 295 269 247 242 232 242 251 160 134 127 200 188 204 216 196 198 199 69 8 300 245 172 167 174 182 184 169 167 178 175 175 178 175 178 181 181 189 187 186 193 176 170 177 172 169 172 182 184 176 185 200 199 181 178 185 196 198 196 205 200 190 202 198 199 198 157 143 172 184 208 198 138 83 174 169 178 184 169 157 165 171 169 165 161 159 159
329 315 289 258 240 240 220 220 215 174 146 132 193 190 209 223 189 179 178 43 348 319 265 173 170 172 183 184 167 169 184 173 174 181 177 180 185 181 185 184 186 193 179 171 176 175 180 170 168 180 179 176 193 204 186 179 186 194 201 205 212 215 201 189 194 186 174 158 155 174 187 199 158 122 107 157 154 172 177 156 147 159 169 167 164 164 164 164
324 282 237 209 207 202 197 199 194 184 172 173 204 202 222 246 28 22 14 35 336 324 298 183 177 175 174 171 169 174 195 187 177 181 178 182 188 183 182 180 183 191 186 172 166 175 184 155 154 168 180 181 190 198 189 191 186 178 201 207 199 216 208 161 111 68 126 180 173 177 186 149 146 166 160 169 173 175 176 163 159 168 172 171 169 167 170 169
308 237 207 201 191 174 179 187 186 188 194 221 226 214 243 301 39 36 3 356 313 302 273 182 174 182 174 166 173 174 178 179 178 183 180 182 189 183 180 179 181 193 195 178 166 179 177 140 154 169 175 184 192 189 194 210 207 179 195 191 158 169 242 198 180 148 182 210 181 178 195 180 182 182 153 168 181 180 184 178 170 170 174 178 177 172 170 167
302 251 218 193 170 159 160 174 185 201 221 235 238 234 253 317 57 67 352 333 311 299 274 191 176 191 180 170 173 173 172 170 177 184 179 181 189 181 179 175 178 192 197 183 171 192 190 140 157 180 175 174 186 189 197 210 220 225 205 184 173 196 208 206 205 183 195 212 194 189 202 197 199 187 163 179 187 183 185 183 176 174 179 182 178 173 170 166
280 246 209 133 149 162 162 171 190 222 237 233 240 228 190 214 207 179 246 285 293 290 275 216 180 190 191 177 168 171 178 173 174 179 178 183 183 178 178 167 173 188 191 188 179 184 201 164 157 183 177 166 179 198 201 190 191 231 222 190 195 217 212 205 208 201 200 208 201 190 195 206 211 189 175 186 188 183 181 183 183 181 181 182 175 171 169 167
265 261 137 118 152 167 166 181 211 239 236 240 254 227 171 222 225 212 215 232 275 280 278 259 185 177 183 176 166 170 184 177 175 178 180 180 168 172 181 172 172 181 182 193 191 169 191 197 159 173 174 172 184 200 204 189 181 202 210 192 194 206 219 211 206 209 220 216 203 195 202 205 197 178 186 190 186 183 182 183 185 183 182 180 173 170 168 165
258 268 125 120 158 167 177 212 231 245 247 247 257 239 225 241 223 220 218 217 241 259 267 277 244 192 175 173 166 168 178 175 176 181 180 175 167 173 182 174 171 173 175 190 192 173 192 199 163 163 174 188 194 195 203 202 190 193 201 198 197 196 197 204 199 199 220 233 215 210 216 185 117 54 205 190 183 183 182 180 182 180 179 177 172 171 167 163
265 284 116 130 170 178 212 255 232 240 259 265 285 263 247 251 231 224 214 218 237 245 245 256 250 217 182 174 166 164 174 171 172 180 175 173 175 171 174 177 177 173 173 184 175 163 203 201 171 169 183 192 184 188 207 214 202 199 205 207 203 199 200 206 202 190 204 224 224 224 224 154 76 12 265 189 178 176 178 180 181 177 175 175 171 166 162 161
295 325 124 161 188 201 251 275 227 230 261 279 295 271 244 240 231 217 215 229 236 228 225 227 217 203 185 176 167 167 174 169 171 178 170 170 172 158 168 179 182 177 181 188 168 151 173 201 176 165 178 186 166 174 208 224 213 205 207 209 208 202 203 215 226 200 198 208 203 213 222 163 88 21 234 189 170 167 176 182 179 174 169 171 168 162 159 159
302 291 209 188 189 205 265 288 270 285 284 280 288 275 252 240 233 230 229 230 224 214 212 198 187 189 180 172 167 167 168 164 173 178 172 172 162 144 170 180 183 182 185 187 170 160 180 198 183 168 173 184 185 188 199 209 213 212 208 208 210 206 200 206 222 199 206 211 204 216 223 164 97 141 192 185 172 167 176 178 173 171 167 167 166 160 158 159
285 260 216 194 187 204 256 270 269 285 285 282 282 269 252 243 234 234 236 237 232 229 221 181 173 177 171 169 166 167 167 161 169 171 173 173 146 138 181 183 181 186 187 181 173 167 183 199 192 186 184 188 197 200 194 193 200 212 213 208 210 209 201 196 201 210 222 217 206 219 223 130 109 171 179 178 176 171 172 172 170 171 166 164 163 159 159 161
297 291 273 197 187 211 243 238 240 260 267 279 282 257 238 251 240 227 232 238 229 225 239 240 197 171 167 169 164 162 165 162 164 165 169 169 142 151 186 184 185 188 178 172 179 179 189 202 204 214 215 206 208 198 176 179 189 201 208 208 209 209 206 204 210 219 222 216 212 221 217 153 143 172 177 174 177 176 174 174 174 171 165 161 160 158 159 160
275 291 316 319 252 227 234 223 214 225 235 267 294 293 267 274 276 193 204 220 211 208 225 226 190 171 164 166 162 160 162 159 160 162 163 159 136 147 171 182 189 177 149 161 187 190 195 195 203 224 261 43 147 134 153 184 196 198 200 204 205 206 209 210 215 221 213 211 216 201 199 200 173 171 180 179 179 183 182 180 178 171 164 161 161 160 158 155
263 268 293 328 290 269 272 264 244 240 224 203 220 287 302 329 25 88 187 236 241 207 207 166 167 170 166 164 159 156 161 160 157 158 161 152 135 143 160 178 185 164 148 176 190 191 207 195 193 209 194 58 55 81 138 194 206 206 205 205 204 205 208 210 214 219 213 218 225 175 183 214 199 176 185 186 182 184 182 181 178 168 162 161 160 159 155 152
289 306 323 179 270 288 289 291 293 286 244 202 206 289 325 359 30 49 46 315 103 156 228 157 154 161 166 166 162 156 161 165 156 151 155 150 144 149 158 170 178 171 173 186 180 188 220 186 172 202 205 143 87 79 125 191 202 213 215 211 208 206 208 209 213 217 215 222 236 197 190 214 210 178 184 180 175 175 173 176 177 170 167 165 161 158 158 161
330 324 320 299 294 290 288 292 303 316 316 224 321 355 350 10 25 26 20 33 60 41 18 130 137 140 161 173 171 157 144 155 159 153 151 149 148 156 162 165 173 177 183 185 167 180 216 166 154 198 211 178 152 122 182 198 199 214 218 217 215 210 208 209 211 213 213 216 222 222 216 213 159 134 159 158 160 168 172 180 181 174 173 172 167 165 167 169
309 293 294 305 305 302 315 324 315 323 346 355 5 1 1 19 22 11 12 36 30 23 5 19 92 135 152 158 150 117 81 94 147 152 154 150 146 152 160 167 170 172 180 184 169 175 203 187 162 199 219 193 174 186 211 227 247 234 223 213 212 213 210 208 203 198 205 210 206 210 225 218 150 136 150 157 165 171 176 182 183 178 179 177 171 168 170 170
308 298 299 298 295 313 332 332 330 346 358 356 2 359 354 2 1 352 7 46 352 298 314 333 335 144 132 110 77 46 23 28 77 129 149 141 137 141 143 163 170 173 177 177 174 182 194 198 183 196 215 196 172 183 207 226 241 237 226 213 209 210 205 196 190 193 205 213 206 207 226 214 154 149 157 164 172 177 182 186 185 183 184 181 172 166 167 167